カタログに戻る

APSTAR 7

運用中通信GEO
NORAD 38107·PAYLOAD·🇨🇳 China

打ち上げ Mar 31, 2012 から Xichang Satellite Launch Center

Loading…

TLE

最新Source: Space-Track

元期: Sep 14, 2026, 14:09 UTC

1 38107U 12013A   26257.59026774 -.00000109  00000-0  00000-0 0  9999
2 38107   0.0250 123.2107 0002535  45.9986 113.3649  1.00271900 52712

AllMySatでAPSTAR 7をリアルタイム追跡

Download on the App Store